ASTRA 3B

Last updated on Sept. 20, 2020, 5:45 a.m. UTC

1 36581U 10021A   20263.79146597  .00000122  00000-0  00000-0 0  9993
2 36581   0.0400  42.2921 0002713 143.8050 121.4545  1.00272465 37855
UTC
Height (km)
Latitude
Longitude
Inclination
Orbital Period
UTC large
Height (km)
Speed (km/s)
/
Latitude / Longitude
Inclination (degrees)
Orbital Period (minutes)
Azimuth
Elevation
Range (km)
Doppler Factor
iOS Compass Heading
iOS Angle

Next 30 passes for location: Hong Kong

Rise time Rise Azimuth (degrees) Set time Set Azimuth (degrees) Duration Max altitude (degrees)

No matching passes for this satellites